LGL7AM ELLX-EDDH

Flight info

Callsign LGL7AM
Flight time 1h 27m
Altitude 35000
Route DIK N853 ONUNE/N0420F230 N853 HMM M170 BASUM/N0452F360 Y850 PIXUR/N0454F350 Y850 MUBZI M105 RIBSO RIBSO7A
Aircraft B38M/M-SDE1FGHILORVWXY/HB1

Departure

Time 2026-04-30 19:25
Airport Luxembourg-Findel International Airport (ELLX)

Arrival

Time 2026-04-30 20:53
Airport Hamburg Helmut Schmidt Airport (EDDH)
Time Latitude Longitude Altitude Speed Heading
2026-04-30 19:02 49.63196 6.21640 1206 ft 0 kts 240°
2026-04-30 19:16 49.63196 6.21639 1233 ft 1 kts 240°
2026-04-30 19:17 49.63166 6.21599 1233 ft 12 kts 186°
2026-04-30 19:17 49.63051 6.21563 1230 ft 11 kts 245°
2026-04-30 19:17 49.63002 6.21400 1233 ft 22 kts 245°
2026-04-30 19:18 49.62881 6.21015 1240 ft 22 kts 244°
2026-04-30 19:18 49.62792 6.20747 1252 ft 20 kts 231°
2026-04-30 19:18 49.62705 6.20630 1243 ft 14 kts 215°
2026-04-30 19:19 49.62627 6.20522 1254 ft 16 kts 229°
2026-04-30 19:19 49.62550 6.20377 1241 ft 20 kts 230°
2026-04-30 19:19 49.62405 6.20036 1226 ft 18 kts 239°
2026-04-30 19:20 49.62346 6.19875 1222 ft 19 kts 240°
2026-04-30 19:20 49.62290 6.19723 1213 ft 15 kts 240°
2026-04-30 19:20 49.62189 6.19546 1203 ft 13 kts 168°
2026-04-30 19:21 49.62172 6.19561 1203 ft 0 kts 144°
2026-04-30 19:22 49.62171 6.19562 1203 ft 1 kts 144°
2026-04-30 19:22 49.62105 6.19694 1207 ft 0 kts 60°
2026-04-30 19:24 49.62138 6.19784 1212 ft 33 kts 61°
2026-04-30 19:24 49.62374 6.20422 1236 ft 102 kts 60°
2026-04-30 19:24 49.63459 6.23280 1773 ft 180 kts 61°
2026-04-30 19:25 49.65244 6.28063 3495 ft 191 kts 66°
2026-04-30 19:26 49.66719 6.32063 4177 ft 238 kts 65°
2026-04-30 19:26 49.68934 6.35698 5725 ft 267 kts 26°
2026-04-30 19:26 49.70822 6.36202 6426 ft 287 kts 359°
2026-04-30 19:27 49.74288 6.33206 8097 ft 299 kts 308°
2026-04-30 19:27 49.76589 6.27830 9271 ft 304 kts 303°
2026-04-30 19:28 49.77724 6.25089 9416 ft 301 kts 303°
2026-04-30 19:28 49.80001 6.19556 10391 ft 307 kts 303°
2026-04-30 19:29 49.82303 6.13948 11294 ft 311 kts 303°
2026-04-30 19:29 49.83719 6.11350 11645 ft 324 kts 325°
2026-04-30 19:30 49.90547 6.10994 12582 ft 364 kts
2026-04-30 19:30 49.95636 6.11015 14022 ft 370 kts
2026-04-30 19:31 50.00832 6.11351 15375 ft 376 kts
2026-04-30 19:31 50.03461 6.11519 16037 ft 380 kts
2026-04-30 19:31 50.08784 6.11859 17344 ft 386 kts
2026-04-30 19:32 50.11482 6.12032 18001 ft 389 kts
2026-04-30 19:32 50.14187 6.12206 18731 ft 388 kts
2026-04-30 19:32 50.16927 6.12381 19067 ft 397 kts
2026-04-30 19:32 50.19681 6.12559 19748 ft 396 kts
2026-04-30 19:33 50.22443 6.12891 20111 ft 400 kts 14°
2026-04-30 19:33 50.25084 6.14151 20743 ft 397 kts 22°
2026-04-30 19:33 50.27696 6.15644 21135 ft 403 kts 23°
2026-04-30 19:33 50.30294 6.17304 21737 ft 401 kts 31°
2026-04-30 19:34 50.32674 6.19703 22224 ft 403 kts 37°
2026-04-30 19:34 50.34969 6.22268 22715 ft 407 kts 38°
2026-04-30 19:34 50.39597 6.27478 23728 ft 413 kts 38°
2026-04-30 19:35 50.41936 6.30116 24192 ft 416 kts 38°
2026-04-30 19:35 50.44292 6.32779 24616 ft 419 kts 38°
2026-04-30 19:35 50.46661 6.35461 25060 ft 421 kts 38°
2026-04-30 19:35 50.49041 6.38185 25484 ft 424 kts 38°
2026-04-30 19:36 50.51423 6.40932 25917 ft 426 kts 38°
2026-04-30 19:36 50.53822 6.43698 26342 ft 429 kts 38°
2026-04-30 19:36 50.58656 6.49277 27179 ft 434 kts 38°
2026-04-30 19:37 50.61102 6.52104 27577 ft 436 kts 38°
2026-04-30 19:37 50.63549 6.54938 28017 ft 438 kts 38°
2026-04-30 19:37 50.66011 6.57791 28383 ft 441 kts 38°
2026-04-30 19:37 50.68492 6.60671 28768 ft 444 kts 38°
2026-04-30 19:38 50.70978 6.63562 29170 ft 445 kts 38°
2026-04-30 19:38 50.73479 6.66473 29522 ft 448 kts 38°
2026-04-30 19:38 50.76000 6.69411 29883 ft 451 kts 38°
2026-04-30 19:38 50.78519 6.72351 30343 ft 450 kts 38°
2026-04-30 19:39 50.81029 6.75285 30872 ft 447 kts 38°
2026-04-30 19:39 50.83503 6.78180 31445 ft 438 kts 38°
2026-04-30 19:39 50.85908 6.80999 31782 ft 420 kts 38°
2026-04-30 19:39 50.88208 6.83698 31671 ft 405 kts 38°
2026-04-30 19:40 50.92670 6.88943 32088 ft 396 kts 38°
2026-04-30 19:40 50.94866 6.91530 32649 ft 391 kts 38°
2026-04-30 19:40 50.97028 6.94079 33251 ft 384 kts 38°
2026-04-30 19:41 50.99150 6.96584 33850 ft 376 kts 38°
2026-04-30 19:41 51.00532 6.98218 34242 ft 371 kts 38°
2026-04-30 19:41 51.02580 7.00640 34740 ft 364 kts 38°
2026-04-30 19:41 51.05258 7.03812 35309 ft 356 kts 38°
2026-04-30 19:42 51.08585 7.07759 35338 ft 361 kts 38°
2026-04-30 19:42 51.12620 7.12556 35343 ft 362 kts 38°
2026-04-30 19:43 51.16653 7.17361 35337 ft 362 kts 38°
2026-04-30 19:44 51.22694 7.24578 35346 ft 362 kts 38°
2026-04-30 19:44 51.26719 7.29400 35342 ft 362 kts 38°
2026-04-30 19:45 51.30742 7.34231 35349 ft 362 kts 38°
2026-04-30 19:45 51.34764 7.39071 35347 ft 362 kts 38°
2026-04-30 19:45 51.36859 7.41284 35329 ft 362 kts 25°
2026-04-30 19:46 51.39232 7.42600 35369 ft 362 kts 20°
2026-04-30 19:46 51.44037 7.45155 35353 ft 364 kts 19°
2026-04-30 19:47 51.48835 7.47601 35347 ft 364 kts 19°
2026-04-30 19:47 51.53668 7.50026 35347 ft 364 kts 19°
2026-04-30 19:48 51.58504 7.52450 35348 ft 364 kts 19°
2026-04-30 19:48 51.63334 7.54876 35351 ft 364 kts 19°
2026-04-30 19:49 51.68162 7.57305 35349 ft 364 kts 18°
2026-04-30 19:49 51.75097 7.62136 35349 ft 363 kts 27°
2026-04-30 19:50 51.79603 7.65819 35364 ft 363 kts 27°
2026-04-30 19:50 51.84103 7.69529 35376 ft 363 kts 29°
2026-04-30 19:51 51.86140 7.71882 35368 ft 359 kts 45°
2026-04-30 19:51 51.87903 7.74768 35388 ft 362 kts 44°
2026-04-30 19:51 51.91470 7.80524 35387 ft 363 kts 45°
2026-04-30 19:52 51.94997 7.86367 35392 ft 363 kts 45°
2026-04-30 19:52 51.98507 7.92239 35397 ft 363 kts 45°
2026-04-30 19:53 52.02020 7.98138 35395 ft 363 kts 46°
2026-04-30 19:53 52.05528 8.04037 35400 ft 363 kts 45°
2026-04-30 19:54 52.09034 8.09948 35389 ft 363 kts 46°
2026-04-30 19:54 52.12534 8.15863 35395 ft 363 kts 46°
2026-04-30 19:55 52.16036 8.21795 35395 ft 363 kts 46°
2026-04-30 19:55 52.19570 8.27657 35374 ft 362 kts 38°
2026-04-30 19:56 52.21691 8.29816 35405 ft 360 kts 27°
2026-04-30 19:56 52.23901 8.31797 35244 ft 362 kts 29°
2026-04-30 19:56 52.26099 8.33769 35006 ft 360 kts 28°
2026-04-30 19:56 52.28298 8.35715 34768 ft 358 kts 28°
2026-04-30 19:57 52.30489 8.37639 34542 ft 357 kts 28°
2026-04-30 19:57 52.32675 8.39550 34301 ft 356 kts 28°
2026-04-30 19:57 52.34854 8.41454 34031 ft 354 kts 28°
2026-04-30 19:57 52.37024 8.43351 33775 ft 352 kts 28°
2026-04-30 19:58 52.39179 8.45237 33513 ft 351 kts 28°
2026-04-30 19:58 52.41328 8.47121 33252 ft 349 kts 28°
2026-04-30 19:58 52.43465 8.48994 33006 ft 348 kts 28°
2026-04-30 19:58 52.45594 8.50864 32747 ft 346 kts 28°
2026-04-30 19:59 52.47713 8.52728 32494 ft 345 kts 28°
2026-04-30 19:59 52.49828 8.54589 32206 ft 344 kts 28°
2026-04-30 19:59 52.54017 8.58282 31371 ft 341 kts 28°
2026-04-30 20:00 52.56106 8.60126 30921 ft 341 kts 28°
2026-04-30 20:00 52.58196 8.61973 30455 ft 342 kts 28°
2026-04-30 20:00 52.60295 8.63829 29906 ft 342 kts 28°
2026-04-30 20:00 52.62391 8.65685 29373 ft 343 kts 28°
2026-04-30 20:01 52.66513 8.69288 28908 ft 326 kts 23°
2026-04-30 20:01 52.68662 8.70368 28660 ft 321 kts 15°
2026-04-30 20:01 52.70802 8.71426 28410 ft 321 kts 18°
2026-04-30 20:02 52.74974 8.73652 27903 ft 309 kts 19°
2026-04-30 20:02 52.76998 8.74758 27667 ft 304 kts 19°
2026-04-30 20:03 52.80983 8.76958 27176 ft 300 kts 19°
2026-04-30 20:03 52.82954 8.78051 26940 ft 299 kts 19°
2026-04-30 20:03 52.84923 8.79145 26699 ft 298 kts 20°
2026-04-30 20:03 52.86883 8.80235 26469 ft 296 kts 20°
2026-04-30 20:04 52.88831 8.81320 26235 ft 294 kts 20°
2026-04-30 20:04 52.90774 8.82403 26023 ft 294 kts 20°
2026-04-30 20:04 52.92708 8.83482 25785 ft 293 kts 20°
2026-04-30 20:05 52.96560 8.85635 25371 ft 291 kts 20°
2026-04-30 20:05 52.98478 8.86708 25149 ft 290 kts 20°
2026-04-30 20:05 53.02286 8.88842 24700 ft 288 kts 20°
2026-04-30 20:06 53.04181 8.89905 24479 ft 287 kts 20°
2026-04-30 20:06 53.06066 8.90964 24266 ft 286 kts 20°
2026-04-30 20:06 53.07948 8.92021 24039 ft 285 kts 20°
2026-04-30 20:06 53.09820 8.93075 23789 ft 284 kts 20°
2026-04-30 20:07 53.11686 8.94126 23532 ft 283 kts 20°
2026-04-30 20:07 53.13544 8.95173 23274 ft 282 kts 20°
2026-04-30 20:07 53.17243 8.97262 22765 ft 280 kts 21°
2026-04-30 20:08 53.19085 8.98302 22515 ft 279 kts 21°
2026-04-30 20:08 53.20916 8.99338 22258 ft 278 kts 21°
2026-04-30 20:08 53.22746 9.00374 22018 ft 277 kts 21°
2026-04-30 20:08 53.24567 9.01407 21776 ft 276 kts 21°
2026-04-30 20:09 53.26386 9.02439 21533 ft 275 kts 21°
2026-04-30 20:09 53.28195 9.03466 21292 ft 274 kts 21°
2026-04-30 20:09 53.31796 9.05514 20812 ft 273 kts 21°
2026-04-30 20:10 53.35378 9.07554 20348 ft 271 kts 21°
2026-04-30 20:10 53.37160 9.08570 20111 ft 270 kts 21°
2026-04-30 20:10 53.38939 9.09586 19885 ft 269 kts 21°
2026-04-30 20:11 53.42476 9.11607 19429 ft 267 kts 22°
2026-04-30 20:11 53.44232 9.12612 19209 ft 267 kts 22°
2026-04-30 20:11 53.45994 9.13622 18948 ft 268 kts 22°
2026-04-30 20:12 53.49522 9.15646 18351 ft 267 kts 22°
2026-04-30 20:12 53.51282 9.16656 18045 ft 267 kts 22°
2026-04-30 20:12 53.53039 9.17666 17749 ft 267 kts 22°
2026-04-30 20:13 53.54792 9.18675 17449 ft 266 kts 22°
2026-04-30 20:13 53.56542 9.19683 17151 ft 266 kts 22°
2026-04-30 20:13 53.58292 9.20692 16861 ft 265 kts 22°
2026-04-30 20:13 53.60028 9.21693 16567 ft 264 kts 22°
2026-04-30 20:14 53.61759 9.22693 16278 ft 262 kts 22°
2026-04-30 20:14 53.63485 9.23690 15991 ft 262 kts 22°
2026-04-30 20:14 53.65205 9.24685 15709 ft 261 kts 22°
2026-04-30 20:14 53.66915 9.25675 15424 ft 260 kts 22°
2026-04-30 20:15 53.68622 9.26664 15152 ft 259 kts 22°
2026-04-30 20:15 53.70322 9.27649 14860 ft 258 kts 23°
2026-04-30 20:15 53.72019 9.28634 14587 ft 257 kts 23°
2026-04-30 20:15 53.73694 9.29607 14434 ft 253 kts 23°
2026-04-30 20:16 53.75362 9.30576 14428 ft 254 kts 23°
2026-04-30 20:16 53.77036 9.31551 14426 ft 254 kts 23°
2026-04-30 20:16 53.78712 9.32527 14424 ft 255 kts 23°
2026-04-30 20:16 53.80385 9.33502 14427 ft 255 kts 23°
2026-04-30 20:17 53.81989 9.34702 14412 ft 249 kts 39°
2026-04-30 20:17 53.83088 9.36851 14436 ft 241 kts 68°
2026-04-30 20:17 53.83426 9.39653 14441 ft 247 kts 93°
2026-04-30 20:17 53.82952 9.42452 14420 ft 254 kts 118°
2026-04-30 20:18 53.81787 9.44736 14192 ft 262 kts 140°
2026-04-30 20:18 53.80128 9.46091 13810 ft 270 kts 163°
2026-04-30 20:18 53.78246 9.46274 13467 ft 274 kts 186°
2026-04-30 20:18 53.76469 9.45235 13436 ft 272 kts 202°
2026-04-30 20:19 53.74733 9.43864 13423 ft 277 kts 201°
2026-04-30 20:19 53.73574 9.42936 13425 ft 279 kts 202°
2026-04-30 20:19 53.71240 9.41015 13431 ft 279 kts 202°
2026-04-30 20:19 53.69549 9.39396 13418 ft 282 kts 217°
2026-04-30 20:20 53.68375 9.36774 13417 ft 285 kts 248°
2026-04-30 20:20 53.68078 9.33496 13417 ft 285 kts 278°
2026-04-30 20:20 53.68711 9.30375 13415 ft 282 kts 307°
2026-04-30 20:20 53.70085 9.28107 13412 ft 275 kts 334°
2026-04-30 20:21 53.71858 9.27107 13415 ft 267 kts
2026-04-30 20:21 53.73658 9.27452 13419 ft 259 kts 24°
2026-04-30 20:21 53.75289 9.28712 13431 ft 258 kts 30°
2026-04-30 20:21 53.76895 9.30082 13430 ft 259 kts 31°
2026-04-30 20:22 53.78488 9.31502 13430 ft 258 kts 32°
2026-04-30 20:22 53.80069 9.32948 13427 ft 258 kts 32°
2026-04-30 20:22 53.81633 9.34432 13421 ft 257 kts 37°
2026-04-30 20:22 53.82838 9.36567 13416 ft 250 kts 64°
2026-04-30 20:23 53.83306 9.39356 13420 ft 248 kts 89°
2026-04-30 20:23 53.83168 9.41317 13422 ft 250 kts 106°
2026-04-30 20:23 53.82356 9.43871 13424 ft 254 kts 129°
2026-04-30 20:23 53.80954 9.45711 13424 ft 261 kts 151°
2026-04-30 20:24 53.79184 9.46498 13429 ft 268 kts 174°
2026-04-30 20:24 53.77329 9.46053 13426 ft 275 kts 197°
2026-04-30 20:24 53.75572 9.44694 13432 ft 279 kts 202°
2026-04-30 20:24 53.73826 9.43266 13431 ft 279 kts 202°
2026-04-30 20:25 53.70351 9.40336 13430 ft 280 kts 205°
2026-04-30 20:25 53.68853 9.38254 13408 ft 283 kts 233°
2026-04-30 20:26 53.68285 9.31915 13451 ft 284 kts 292°
2026-04-30 20:26 53.70915 9.27426 13049 ft 269 kts 347°
2026-04-30 20:26 53.72730 9.27093 12845 ft 260 kts 12°
2026-04-30 20:27 53.76020 9.29329 12470 ft 256 kts 30°
2026-04-30 20:27 53.79160 9.32113 12431 ft 255 kts 31°
2026-04-30 20:28 53.82192 9.35183 12413 ft 251 kts 48°
2026-04-30 20:28 53.83252 9.40493 12418 ft 246 kts 98°
2026-04-30 20:29 53.81409 9.45281 12425 ft 255 kts 144°
2026-04-30 20:30 53.76165 9.45224 12443 ft 273 kts 202°
2026-04-30 20:30 53.71027 9.41000 12430 ft 274 kts 203°
2026-04-30 20:31 53.67908 9.33619 12359 ft 281 kts 276°
2026-04-30 20:32 53.71466 9.27107 11935 ft 261 kts 356°
2026-04-30 20:32 53.74878 9.28401 11576 ft 252 kts 31°
2026-04-30 20:33 53.76447 9.29729 11434 ft 251 kts 30°
2026-04-30 20:33 53.79550 9.32483 11428 ft 253 kts 31°
2026-04-30 20:33 53.81097 9.33908 11427 ft 253 kts 32°
2026-04-30 20:34 53.83268 9.38182 11455 ft 245 kts 78°
2026-04-30 20:34 53.82582 9.43639 11446 ft 248 kts 126°
2026-04-30 20:35 53.81288 9.45582 11428 ft 253 kts 148°
2026-04-30 20:35 53.79619 9.46551 11425 ft 258 kts 170°
2026-04-30 20:35 53.76115 9.45144 11441 ft 269 kts 203°
2026-04-30 20:36 53.74429 9.43774 11436 ft 269 kts 202°
2026-04-30 20:36 53.72751 9.42382 11436 ft 269 kts 203°
2026-04-30 20:36 53.69437 9.39453 11415 ft 271 kts 215°
2026-04-30 20:37 53.68229 9.37036 11417 ft 273 kts 244°
2026-04-30 20:37 53.67825 9.33925 11429 ft 274 kts 273°
2026-04-30 20:37 53.68299 9.30853 11477 ft 273 kts 301°
2026-04-30 20:37 53.69516 9.28471 11428 ft 264 kts 330°
2026-04-30 20:38 53.71200 9.27352 11445 ft 261 kts 357°
2026-04-30 20:38 53.72962 9.27649 11220 ft 253 kts 25°
2026-04-30 20:38 53.74370 9.29293 10978 ft 246 kts 53°
2026-04-30 20:39 53.75007 9.34675 10405 ft 245 kts 102°
2026-04-30 20:39 53.74596 9.37485 9955 ft 249 kts 104°
2026-04-30 20:39 53.74153 9.40341 9466 ft 253 kts 104°
2026-04-30 20:40 53.72573 9.45357 8728 ft 246 kts 143°
2026-04-30 20:40 53.70987 9.46380 8433 ft 248 kts 169°
2026-04-30 20:40 53.69270 9.46578 8156 ft 246 kts 174°
2026-04-30 20:41 53.65834 9.46838 7487 ft 247 kts 174°
2026-04-30 20:41 53.64113 9.46964 7149 ft 247 kts 174°
2026-04-30 20:41 53.62396 9.47090 6823 ft 246 kts 174°
2026-04-30 20:41 53.60699 9.47211 6465 ft 242 kts 174°
2026-04-30 20:42 53.59027 9.47339 6113 ft 239 kts 174°
2026-04-30 20:42 53.57380 9.47469 5763 ft 236 kts 174°
2026-04-30 20:42 53.54127 9.47748 5119 ft 232 kts 174°
2026-04-30 20:43 53.52511 9.47901 4896 ft 232 kts 174°
2026-04-30 20:43 53.50900 9.48024 4665 ft 232 kts 180°
2026-04-30 20:43 53.49328 9.47431 4446 ft 233 kts 201°
2026-04-30 20:44 53.46394 9.45053 4050 ft 233 kts 204°
2026-04-30 20:44 53.44946 9.43866 3976 ft 231 kts 204°
2026-04-30 20:44 53.41928 9.43336 3957 ft 223 kts 152°
2026-04-30 20:45 53.40383 9.47500 3974 ft 223 kts 91°
2026-04-30 20:45 53.40520 9.50104 3982 ft 225 kts 84°
2026-04-30 20:45 53.40756 9.52700 3971 ft 226 kts 75°
2026-04-30 20:46 53.43388 9.59277 3982 ft 226 kts 52°
2026-04-30 20:46 53.44371 9.61261 3987 ft 217 kts 52°
2026-04-30 20:47 53.46325 9.65192 4009 ft 220 kts 52°
2026-04-30 20:47 53.47307 9.67163 3991 ft 220 kts 52°
2026-04-30 20:48 53.49271 9.71107 3903 ft 221 kts 52°
2026-04-30 20:48 53.50253 9.73079 3623 ft 219 kts 52°
2026-04-30 20:48 53.51223 9.75028 3334 ft 214 kts 51°
2026-04-30 20:48 53.52154 9.76897 3069 ft 204 kts 51°
2026-04-30 20:49 53.53044 9.78688 2821 ft 196 kts 51°
2026-04-30 20:49 53.53890 9.80391 2588 ft 182 kts 52°
2026-04-30 20:49 53.54695 9.82010 2335 ft 176 kts 52°
2026-04-30 20:50 53.56126 9.84893 1892 ft 154 kts 52°
2026-04-30 20:50 53.56813 9.86277 1674 ft 153 kts 52°
2026-04-30 20:50 53.57495 9.87649 1465 ft 153 kts 52°
2026-04-30 20:50 53.58164 9.88998 1255 ft 150 kts 52°
2026-04-30 20:51 53.58831 9.90337 1099 ft 149 kts 52°
2026-04-30 20:51 53.60158 9.93005 702 ft 150 kts 51°
2026-04-30 20:51 53.60828 9.94359 485 ft 147 kts 50°
2026-04-30 20:52 53.61464 9.95638 246 ft 142 kts 51°
2026-04-30 20:52 53.62117 9.96955 55 ft 145 kts 50°
2026-04-30 20:52 53.63024 9.98797 50 ft 53 kts 54°
2026-04-30 20:53 53.63091 9.99140 51 ft 8 kts 95°
2026-04-30 20:53 53.63090 9.99164 51 ft 3 kts 96°
2026-04-30 20:53 53.63086 9.99229 50 ft 8 kts 96°
2026-04-30 20:54 53.63082 9.99304 48 ft 0 kts 89°
2026-04-30 20:56 53.63083 9.99341 50 ft 5 kts 86°
2026-04-30 20:57 53.63089 9.99372 48 ft 0 kts 64°
2026-04-30 20:57 53.63089 9.99373 48 ft 0 kts 64°
2026-04-30 20:58 53.63120 9.99450 51 ft 15 kts 54°
2026-04-30 20:58 53.63189 9.99602 50 ft 15 kts 52°
2026-04-30 20:59 53.63192 9.99791 50 ft 11 kts 151°
2026-04-30 20:59 53.63125 9.99853 50 ft 8 kts 148°
2026-04-30 21:00 53.63121 9.99886 50 ft 3 kts 72°
2026-04-30 21:00 53.63147 10.00021 50 ft 8 kts 128°